Location: *
(33.6842°N, 117.7925°W)
Time: 02:21:31
(UTC+00:00)

Cosmos 2154 Rocket - Pass Details

Date: 21 October 2019
Orbit: 966 x 996 km, 82.9° (Epoch: 13 November)

Event Time Altitude Azimuth Distance (km) Brightness Sun altitude
Rises 12:05:01 0° 182° (S) 3,642 6.9 -24.7°
Reaches altitude 10° 12:07:30 10° 182° (S) 2,697 6.3 -24.2°
Maximum altitude 12:13:40 85° 95° (E) 975 4.0 -22.9°
Drops below altitude 10° 12:19:54 10° 7° (N) 2,714 6.4 -21.7°
Sets 12:22:24 0° 7° (N) 3,666 7.1 -21.1°
